TimeCST,TemperatureF,Dew PointF,Humidity,Sea Level PressureIn,VisibilityMPH,Wind Direction,Wind SpeedMPH,Gust SpeedMPH,PrecipitationIn,Events,Conditions,WindDirDegrees,DateUTC
12:56 AM,16.0,10.0,77,30.31,10.0,SE,10.4,-,N/A,,Clear,130,2012-12-05 06:56:00
1:56 AM,15.1,10.0,80,30.29,10.0,SE,10.4,-,N/A,,Clear,140,2012-12-05 07:56:00
2:56 AM,15.1,10.0,80,30.26,10.0,SE,11.5,-,N/A,,Clear,140,2012-12-05 08:56:00
3:56 AM,16.0,10.9,81,30.22,10.0,SE,12.7,-,N/A,,Clear,140,2012-12-05 09:56:00
4:56 AM,17.1,10.9,77,30.19,10.0,SE,8.1,-,N/A,,Clear,140,2012-12-05 10:56:00
5:56 AM,17.1,12.0,81,30.14,10.0,SSE,13.8,-,N/A,,Clear,150,2012-12-05 11:56:00
6:56 AM,19.0,12.9,77,30.11,10.0,SSE,15.0,-,N/A,,Clear,150,2012-12-05 12:56:00
8:56 AM,19.9,14.0,78,30.05,10.0,SSE,13.8,-,N/A,,Clear,150,2012-12-05 14:56:00
9:56 AM,21.9,15.1,75,30.02,10.0,SE,15.0,-,N/A,,Clear,140,2012-12-05 15:56:00
10:56 AM,27.0,17.1,66,29.97,10.0,SSE,12.7,21.9,N/A,,Clear,150,2012-12-05 16:56:00
11:56 AM,30.0,19.0,64,29.91,10.0,SSE,16.1,23.0,N/A,,Clear,160,2012-12-05 17:56:00
12:56 PM,32.0,21.0,64,29.87,10.0,SSE,16.1,24.2,N/A,,Clear,160,2012-12-05 18:56:00
1:56 PM,34.0,21.0,59,29.82,10.0,SSE,13.8,-,N/A,,Clear,150,2012-12-05 19:56:00
2:56 PM,35.1,21.9,59,29.78,10.0,SSE,12.7,-,N/A,,Clear,160,2012-12-05 20:56:00
3:56 PM,32.0,19.9,61,29.78,10.0,SSE,11.5,-,N/A,,Clear,150,2012-12-05 21:56:00
4:56 PM,30.9,21.0,67,29.77,10.0,South,6.9,-,N/A,,Scattered Clouds,170,2012-12-05 22:56:00
5:56 PM,30.0,19.9,66,29.73,10.0,SSE,8.1,-,N/A,,Mostly Cloudy,160,2012-12-05 23:56:00
6:56 PM,30.0,21.0,69,29.72,10.0,SSE,6.9,-,N/A,,Overcast,160,2012-12-06 00:56:00
7:56 PM,32.0,21.9,66,29.73,10.0,SW,8.1,-,N/A,,Overcast,220,2012-12-06 01:56:00
8:56 PM,32.0,23.0,69,29.70,10.0,SSE,5.8,-,0.00,,Overcast,150,2012-12-06 02:56:00
9:56 PM,33.1,26.1,75,29.71,10.0,WSW,4.6,-,0.00,,Overcast,240,2012-12-06 03:56:00
10:56 PM,39.0,28.0,65,29.71,10.0,West,11.5,-,N/A,,Clear,280,2012-12-06 04:56:00
11:56 PM,39.0,27.0,62,29.72,10.0,West,17.3,-,N/A,,Clear,280,2012-12-06 05:56:00